EW7642 Weather Reports


time (UTC)temp
C
wind
direction
speed
KPH
gust
KPH
rain 1hr
cm
rain 24hr
cm
rain mn
cm
humidity
%
barometer
mb
20260504201601 -17 0.0 0.0 0.00 0.00 0.00 1010.2
20260504200059 -17 0.0 0.0 0.00 0.00 0.00 1010.2
20260504194604 -17 0.0 0.0 0.00 0.00 0.00 1010.1
20260504193045 -17 0.0 0.0 0.00 0.00 0.00 1010.2
20260504191547 -17 0.0 0.0 0.00 0.00 0.00 1010.4
20260504190044 -17 0.0 0.0 0.00 0.00 0.00 1010.5
20260504184538 -17 0.0 0.0 0.00 0.00 0.00 1010.4
20260504183027 -17 0.0 0.0 0.00 0.00 0.00 1010.4
20260504181523 -17 0.0 0.0 0.00 0.00 0.00 1010.5
20260504180021 -17 0.0 0.0 0.00 0.00 0.00 1010.4
20260504174514 -17 0.0 0.0 0.00 0.00 0.00 1010.5
20260504173015 -17 0.0 0.0 0.00 0.00 0.00 1010.4
20260504171505 -17 0.0 0.0 0.00 0.00 0.00 1010.6
20260504081547 13 277 3.2 4.8 0.00 0.00 0.00 86 1008.8
20260504044531 17 284 1.6 4.8 0.00 0.00 0.00 69 1009.3
20260504043030 16 292 3.2 6.4 0.00 0.00 0.00 71 1009.2
20260504041528 17 292 3.2 6.4 0.00 0.00 0.00 70 1009.1
20260504040031 17 283 0.0 4.8 0.00 0.00 0.00 62 1009.1
20260504034540 18 283 0.0 0.0 0.00 0.00 0.00 56 1009.0
20260504033030 18 283 0.0 0.0 0.00 0.00 0.00 54 1009.0
20260504031523 -17 0.0 0.0 0.00 0.00 0.00 1009.1
20260504030029 -17 0.0 0.0 0.00 0.00 0.00 1009.1
20260504024518 20 150 4.8 8.0 0.00 0.00 0.00 50 1009.1
20260504023016 20 140 3.2 8.0 0.00 0.00 0.00 52 1009.1
20260504021514 20 153 3.2 8.0 0.00 0.00 0.00 52 1009.4
20260504020013 19 148 3.2 9.7 0.00 0.00 0.00 53 1009.5
20260504014517 19 161 6.4 12.9 0.00 0.00 0.00 53 1009.5
20260504013010 20 157 4.8 9.7 0.00 0.00 0.00 53 1009.7
20260504011510 20 143 3.2 9.7 0.00 0.00 0.00 55 1009.7
20260504010007 20 154 4.8 9.7 0.00 0.00 0.00 55 1009.9
20260504004506 19 149 6.4 11.3 0.00 0.00 0.00 57 1010.0
20260504003003 19 152 4.8 8.0 0.00 0.00 0.00 57 1010.2
20260504001501 19 165 4.8 9.7 0.00 0.00 0.00 57 1010.3
20260504000108 20 162 3.2 8.0 0.00 0.00 0.00 55 1010.5
20260503234557 21 173 4.8 12.9 0.00 0.00 0.00 54 1010.7
20260503233056 22 197 4.8 9.7 0.00 0.00 0.00 51 1010.8
20260503231555 23 175 1.6 8.0 0.00 0.00 0.00 50 1010.8
20260503230051 23 237 6.4 12.9 0.00 0.00 0.00 51 1010.9
20260503224551 24 251 6.4 16.1 0.00 0.00 0.00 44 1011.1
20260503223045 23 341 12.9 20.9 0.00 0.00 0.00 43 1011.3
20260503221541 23 355 14.5 20.9 0.00 0.00 0.00 44 1011.4
20260503220040 23 9 16.1 20.9 0.00 0.00 0.00 44 1011.5
20260503214542 23 355 14.5 22.5 0.00 0.00 0.00 44 1011.7
20260503213050 22 340 19.3 27.4 0.00 0.00 0.00 45 1011.9
20260503211532 22 320 16.1 27.4 0.00 0.00 0.00 46 1012.0
20260503210024 22 348 19.3 25.7 0.00 0.00 0.00 47 1012.3
20260503204528 22 345 22.5 29.0 0.00 0.00 0.00 47 1012.5
20260503203023 21 349 19.3 27.4 0.00 0.00 0.00 47 1012.7